DateTime,DeltaTime,Roll,TargetAngle,Position,Power
2022-05-24 15:07:09.967,0,0.03,-1.65,2,23.51
2022-05-24 15:07:10.082,0.114996358752251,-0.83,-5.27,1,35.74
2022-05-24 15:07:10.197,0.230002775788307,-0.95,-2.44,-3,12.46
2022-05-24 15:07:10.311,0.344003364443779,-0.56,1.13,-4,-20.03
2022-05-24 15:07:10.422,0.454996526241302,-0.29,1.55,-3,-17.59
2022-05-24 15:07:10.536,0.568997114896774,-0.04,2.35,0,-15.26
2022-05-24 15:07:10.651,0.684003531932831,0.37,4.49,1,-11.72
2022-05-24 15:07:10.766,0.798999890685081,1.02,7.83,2,-24.93
2022-05-24 15:07:10.880,0.913000479340553,1.2,6.38,3,-10.27
2022-05-24 15:07:10.995,1.0279968380928,0.91,3.33,4,6.4
2022-05-24 15:07:11.110,1.14300325512886,0.23,-0.8,3,26.72
2022-05-24 15:07:11.224,1.25700384378433,-0.6,-4.28,2,32.85
2022-05-24 15:07:11.338,1.3710044324398,-0.91,-3.15,0,19.59
2022-05-24 15:07:11.454,1.48699656128883,-0.79,-0.86,-2,1.42
2022-05-24 15:07:11.568,1.60099714994431,-0.5,0.89,-3,-11.66
2022-05-24 15:07:11.682,1.71499773859978,0.06,4.08,-3,-27.96
2022-05-24 15:07:11.798,1.83099992573261,0.51,5.18,0,-28.61
2022-05-24 15:07:11.912,1.94500051438808,0.65,4.26,3,-8.29
2022-05-24 15:07:12.023,2.05600373446941,0.87,5.43,4,-4.69
2022-05-24 15:07:12.138,2.17100009322166,1.17,6.78,4,-9.04
2022-05-24 15:07:12.253,2.28599645197392,0.92,3.55,4,7.3
2022-05-24 15:07:12.367,2.39999704062939,-0.13,-3.68,4,39.3
2022-05-24 15:07:12.482,2.51500345766544,-1.09,-6.59,0,45.04
2022-05-24 15:07:12.597,2.62999981641769,-0.93,-1.16,-3,-8.09
2022-05-24 15:07:12.711,2.74400040507317,-0.6,0.75,-4,-20.19
2022-05-24 15:07:12.826,2.85899676382542,-0.33,1.41,-4,-22.36
2022-05-24 15:07:12.941,2.97400318086147,-0.12,1.93,-2,-23.3
2022-05-24 15:07:13.055,3.08800376951694,0.17,3.29,2,-19.95
2022-05-24 15:07:13.171,3.20399589836597,0.56,5.04,3,-10.04
2022-05-24 15:07:13.284,3.31700071692467,0.94,6.39,4,-15.01
2022-05-24 15:07:13.398,3.43100130558014,0.86,4.08,5,1.73
2022-05-24 15:07:13.510,3.54300029575825,-0.03,-2.59,4,35.72
2022-05-24 15:07:13.625,3.6579966545105,-1.01,-6.46,3,40.72
2022-05-24 15:07:13.739,3.77199724316597,-1.16,-3.33,-3,17.25
2022-05-24 15:07:13.854,3.88700366020203,-0.9,-0.61,-3,-20.38
2022-05-24 15:07:13.968,4.0010042488575,-0.71,-0.24,-4,-11.02
2022-05-24 15:07:14.083,4.11600060760975,-0.29,2.19,-3,-27.94
2022-05-24 15:07:14.198,4.230996966362,0.33,5.28,0,-34.46
2022-05-24 15:07:14.313,4.34600338339806,0.49,3.84,3,-10.28
2022-05-24 15:07:14.428,4.46099974215031,0.69,4.64,4,-5.43
2022-05-24 15:07:14.542,4.57500033080578,0.8,4.66,5,-3.59
2022-05-24 15:07:14.657,4.68999668955803,0.34,0.63,5,20.27
2022-05-24 15:07:14.771,4.8039972782135,-0.64,-5.15,4,42.95
2022-05-24 15:07:14.886,4.91900369524956,-1.16,-4.96,0,30.36
2022-05-24 15:07:15.000,5.03300428390503,-1.1,-2.16,-3,-1.29
2022-05-24 15:07:15.112,5.14500327408314,-0.82,-0.28,-4,-16.55
2022-05-24 15:07:15.226,5.25900386273861,-0.43,1.65,-4,-25.09
2022-05-24 15:07:15.340,5.37300445139408,0.11,4.16,0,-34.32
2022-05-24 15:07:15.456,5.48899658024311,0.4,4.09,4,-11.39
2022-05-24 15:07:15.570,5.60299716889858,0.78,5.77,5,-5.52
2022-05-24 15:07:15.685,5.71800358593464,1.14,6.97,5,-9.7
2022-05-24 15:07:15.799,5.83200417459011,1.01,4.34,5,3.55
2022-05-24 15:07:15.914,5.94700053334236,0,-3.04,4,37.05
2022-05-24 15:07:16.028,6.06100112199783,-1.24,-8.31,2,49.5
2022-05-24 15:07:16.143,6.17599748075008,-1.32,-3.58,-3,11.75
2022-05-24 15:07:16.258,6.29100389778614,-0.84,0.54,-4,-24.54
2022-05-24 15:07:16.373,6.40600025653839,-0.57,0.61,-4,-18.23
2022-05-24 15:07:16.487,6.52000084519386,-0.34,1.2,-3,-20.21
2022-05-24 15:07:16.602,6.63499720394611,0.22,4.64,0,-32.12
2022-05-24 15:07:16.713,6.74600042402744,0.62,5.35,2,-18.13
2022-05-24 15:07:16.827,6.86000101268291,0.74,4.53,4,-7.53
2022-05-24 15:07:16.942,6.97499737143517,0.59,2.78,6,7.27
2022-05-24 15:07:17.056,7.08899796009064,-0.12,-2.11,5,36.97
2022-05-24 15:07:17.172,7.20500014722347,-1.03,-6.2,5,44.13
2022-05-24 15:07:17.287,7.31999650597572,-1.1,-2.75,-1,23.83
2022-05-24 15:07:17.401,7.4339970946312,-0.81,-0.14,-4,-14
2022-05-24 15:07:17.515,7.54799768328667,-0.69,-0.5,-4,-16
2022-05-24 15:07:17.629,7.66199827194214,-0.47,0.7,-3,-18.86
2022-05-24 15:07:17.745,7.77800045907497,-0.02,3.32,-2,-25.84
2022-05-24 15:07:17.860,7.89299681782722,0.52,5.56,0,-30.48
2022-05-24 15:07:17.974,8.0069974064827,0.56,3.52,4,-9.35
2022-05-24 15:07:18.089,8.12200382351875,0.3,1.31,6,16.11
2022-05-24 15:07:18.203,8.23600441217422,-0.14,-1,4,29.77
2022-05-24 15:07:18.314,8.34699757397175,-0.66,-3.16,2,25.55
2022-05-24 15:07:18.428,8.46099816262722,-1.14,-4.69,0,23.66
2022-05-24 15:07:18.544,8.57700034976006,-1.39,-4.58,-3,14.34
2022-05-24 15:07:18.658,8.69100093841553,-1.39,-3.43,-4,-3.24
2022-05-24 15:07:18.772,8.805001527071,-0.92,0.2,-5,-20.96
2022-05-24 15:07:18.888,8.92100371420383,0.06,5.89,-4,-48.7
2022-05-24 15:07:19.001,9.03399847447872,0.47,4.82,2,-29.87
2022-05-24 15:07:19.118,9.15099643170834,0.36,2.22,3,9.68
2022-05-24 15:07:19.232,9.26499702036381,0.59,4.43,6,-7.71
2022-05-24 15:07:19.346,9.37899760901928,0.57,3.31,6,14.36
2022-05-24 15:07:19.461,9.49400402605534,0.14,0.02,5,25.67
2022-05-24 15:07:19.575,9.60800461471081,-0.79,-5.47,3,44.4
2022-05-24 15:07:19.690,9.72300097346306,-1.04,-3.3,0,18.56
2022-05-24 15:07:19.805,9.83799733221531,-0.61,1.13,-3,-12.56
2022-05-24 15:07:19.915,9.94800478219986,-0.14,2.94,-3,-26.98
2022-05-24 15:07:20.030,10.0630011409521,0.15,3.23,0,-22.67
2022-05-24 15:07:20.145,10.1779974997044,0.52,4.84,2,-15.87
2022-05-24 15:07:20.259,10.2919980883598,1.09,7.71,3,-22.5
2022-05-24 15:07:20.375,10.4080002754927,1.45,8.03,5,-18.47
2022-05-24 15:07:20.489,10.5220008641481,1.15,4.11,6,9.75
2022-05-24 15:07:20.604,10.6369972229004,0.27,-1.47,7,35.02
2022-05-24 15:07:20.718,10.7509978115559,-0.37,-2.73,4,38.35
2022-05-24 15:07:20.833,10.8660042285919,-0.54,-1.2,1,13.64
2022-05-24 15:07:20.948,10.9810005873442,-0.7,-1.78,-2,7.97
2022-05-24 15:07:21.063,11.0959969460964,-0.91,-2.72,-4,1.08
2022-05-24 15:07:21.178,11.2110033631325,-0.67,0.12,-3,-20.41
2022-05-24 15:07:21.292,11.3250039517879,-0.05,3.96,0,-28.6
2022-05-24 15:07:21.406,11.4390045404434,0.67,6.88,2,-25.12
2022-05-24 15:07:21.517,11.5499977022409,1.13,7.38,4,-18.35
2022-05-24 15:07:21.631,11.6639982908964,1.18,5.71,7,-2.45
2022-05-24 15:07:21.746,11.7790047079325,0.85,2.98,7,21.25
2022-05-24 15:07:21.860,11.8929952383041,0.09,-1.61,5,37.08
2022-05-24 15:07:21.976,12.008997425437,-0.39,-2.05,2,24.03
2022-05-24 15:07:22.090,12.1229980140924,-0.82,-3.36,0,18.25
2022-05-24 15:07:22.205,12.2380044311285,-1.02,-3.07,-4,9.51
2022-05-24 15:07:22.319,12.352005019784,-1.07,-2.58,-4,-9.68
2022-05-24 15:07:22.434,12.4670013785362,-0.7,0.55,-2,-19.59
2022-05-24 15:07:22.549,12.5819977372885,0.26,6.49,0,-35.61
2022-05-24 15:07:22.664,12.6970041543245,0.91,7.48,2,-26.17
2022-05-24 15:07:22.778,12.81100474298,1.05,5.63,5,-8.89
2022-05-24 15:07:22.893,12.9260011017323,0.79,3.03,6,13.72
2022-05-24 15:07:23.008,13.0409974604845,0.17,-0.74,6,30.46
2022-05-24 15:07:23.118,13.1510049104691,-0.6,-4.08,4,41.48
2022-05-24 15:07:23.233,13.2660012692213,-0.87,-2.79,0,21.61
2022-05-24 15:07:23.348,13.3809976279736,-0.84,-1.38,-4,-0.55
2022-05-24 15:07:23.463,13.4960040450096,-0.9,-2,-3,-10.26
2022-05-24 15:07:23.578,13.6110004037619,-0.71,-0.29,-3,-9.54
2022-05-24 15:07:23.692,13.7250009924173,0.16,5.79,-3,-39.25
2022-05-24 15:07:23.807,13.8399973511696,0.77,6.76,0,-36.97
2022-05-24 15:07:23.921,13.9539979398251,0.69,3.5,4,-5.24
2022-05-24 15:07:24.036,14.0690043568611,0.47,2.1,6,13.24
2022-05-24 15:07:24.150,14.1830049455166,0.35,2.05,5,16.6
2022-05-24 15:07:24.265,14.2980013042688,-0.12,-1.05,3,24.77
2022-05-24 15:07:24.380,14.4129976630211,-0.77,-4.12,2,27.89
2022-05-24 15:07:24.494,14.5269982516766,-1.22,-4.81,0,25.62
2022-05-24 15:07:24.609,14.6420046687126,-1.28,-3.35,-3,9.31
2022-05-24 15:07:24.720,14.7529978305101,-0.91,-0.19,-4,-16.63
2022-05-24 15:07:24.834,14.8669984191656,-0.3,3.01,-3,-29.85
2022-05-24 15:07:24.949,14.9820048362017,0.33,5.31,0,-31.46
2022-05-24 15:07:25.063,15.0959953665733,0.6,4.72,3,-12.58
2022-05-24 15:07:25.178,15.2110017836094,0.76,4.73,5,-2.75
2022-05-24 15:07:25.293,15.3259981423616,0.81,4.46,5,4.55
2022-05-24 15:07:25.408,15.4410045593977,0.46,1.44,5,16.68
2022-05-24 15:07:25.523,15.5560009181499,-0.71,-6.17,4,51.14
2022-05-24 15:07:25.638,15.6709972769022,-1.13,-4.38,1,27.3
2022-05-24 15:07:25.752,15.7849978655577,-0.84,-0.28,-3,-3.84
2022-05-24 15:07:25.866,15.8989984542131,-0.69,-0.33,-4,-14.17
2022-05-24 15:07:25.981,16.0140048712492,-0.18,2.95,-3,-30.61
2022-05-24 15:07:26.096,16.1290012300014,0.25,4.18,0,-26.79
2022-05-24 15:07:26.210,16.2430018186569,0.54,4.59,2,-14.2
2022-05-24 15:07:26.321,16.3540050387383,0.83,5.53,5,-12.72
2022-05-24 15:07:26.436,16.4690013974905,1.06,6.13,5,-2.42
2022-05-24 15:07:26.549,16.5819961577654,0.75,2.64,5,11.77
2022-05-24 15:07:26.665,16.6979983448982,-0.05,-2.24,4,31.87
2022-05-24 15:07:26.780,16.8130047619343,-1.14,-7.39,2,46.88
2022-05-24 15:07:26.894,16.9269952923059,-1.44,-4.91,-3,19.62
2022-05-24 15:07:27.010,17.0429974794388,-1.13,-1.22,-5,-17.31
2022-05-24 15:07:27.124,17.1569980680943,-1.02,-1.69,-4,-13.75
2022-05-24 15:07:27.238,17.2709986567497,-0.65,0.74,-4,-19.21
2022-05-24 15:07:27.353,17.385995015502,0.18,5.69,-3,-42.52
2022-05-24 15:07:27.467,17.4999956041574,0.58,5.18,2,-29.39
2022-05-24 15:07:27.583,17.6159977912903,0.5,2.77,5,5
2022-05-24 15:07:27.697,17.7299983799458,0.47,2.95,6,9.31
2022-05-24 15:07:27.812,17.8450047969818,0.18,0.72,6,21.92
2022-05-24 15:07:27.922,17.9550021886826,-0.66,-4.59,4,44.78
2022-05-24 15:07:28.037,18.0699985474348,-0.98,-3.38,3,22.7
2022-05-24 15:07:28.151,18.1839991360903,-0.9,-1.38,-2,12.58
2022-05-24 15:07:28.267,18.3000013232231,-0.78,-0.83,-4,-10.85
2022-05-24 15:07:28.381,18.4140019118786,-0.63,-0.12,-3,-17.25
2022-05-24 15:07:28.496,18.5289982706308,-0.05,3.71,-2,-28.21
2022-05-24 15:07:28.611,18.6440046876669,0.39,4.69,1,-25
2022-05-24 15:07:28.726,18.7590010464191,0.63,4.67,4,-10.51
2022-05-24 15:07:28.840,18.8730016350746,0.83,5.2,5,-2.48
2022-05-24 15:07:28.955,18.9879979938269,0.85,4.48,6,2.79
2022-05-24 15:07:29.069,19.1019985824823,0.13,-1.3,4,34.5
2022-05-24 15:07:29.184,19.2170049995184,-0.82,-5.6,2,37.8
2022-05-24 15:07:29.299,19.3320013582706,-1.02,-3.05,-3,12.88
2022-05-24 15:07:29.413,19.4460019469261,-0.98,-1.86,-4,-11.68
2022-05-24 15:07:29.528,19.5609983056784,-0.96,-1.85,-4,-8.69
2022-05-24 15:07:29.638,19.6709956973791,-0.32,3.1,-4,-32.35
2022-05-24 15:07:29.753,19.7860021144152,0.51,6.82,-2,-45.1
2022-05-24 15:07:29.868,19.9009984731674,0.53,3.36,3,-12.63
2022-05-24 15:07:29.982,20.0149990618229,0.3,1.46,5,14.24
2022-05-24 15:07:30.098,20.1310012489557,0.32,2.56,5,9.85
2022-05-24 15:07:30.212,20.2450018376112,-0.02,-0.14,6,22.38
2022-05-24 15:07:30.327,20.3599981963634,-0.79,-4.71,4,47.17
2022-05-24 15:07:30.441,20.4739987850189,-0.88,-2.05,1,16.23
2022-05-24 15:07:30.557,20.5900009721518,-0.77,-0.81,-3,1.65
2022-05-24 15:07:30.671,20.7040015608072,-0.67,-0.54,-4,-13.97
2022-05-24 15:07:30.785,20.8180021494627,-0.33,1.73,-3,-24.93
2022-05-24 15:07:30.900,20.932998508215,0.2,4.43,0,-29.67
2022-05-24 15:07:31.014,21.0469990968704,0.57,5.02,2,-16.07
2022-05-24 15:07:31.129,21.1619954556227,1.12,7.71,4,-23.14
2022-05-24 15:07:31.240,21.272998675704,1.35,7.15,7,-9.94
2022-05-24 15:07:31.354,21.3869992643595,1.11,4.22,7,16.05
2022-05-24 15:07:31.470,21.5030014514923,0.34,-0.76,6,33.45
2022-05-24 15:07:31.584,21.6170020401478,-0.49,-3.98,4,38.73
2022-05-24 15:07:31.698,21.7310026288033,-0.71,-2.02,0,16.92
2022-05-24 15:07:31.813,21.8459989875555,-0.69,-0.97,-3,-2.58
2022-05-24 15:07:31.927,21.959999576211,-0.75,-1.47,-2,-8.39
2022-05-24 15:07:32.042,22.0749959349632,-0.3,2.29,-2,-19.05
2022-05-24 15:07:32.157,22.1900023519993,0.65,7.89,0,-43.84
2022-05-24 15:07:32.273,22.3060045391321,0.92,5.76,3,-16.76
2022-05-24 15:07:32.386,22.418999299407,0.9,4.44,5,-1.08
2022-05-24 15:07:32.502,22.5350014865398,0.77,3.51,5,7.8
2022-05-24 15:07:32.616,22.6490020751953,0.32,0.59,5,18.7
2022-05-24 15:07:32.726,22.7589994668961,-0.66,-5.19,4,44.2
2022-05-24 15:07:32.841,22.8739958256483,-1.04,-3.9,1,26.09
2022-05-24 15:07:32.956,22.9890022426844,-0.69,0.51,-3,-7.27
2022-05-24 15:07:33.072,23.1050044298172,-0.46,0.84,-3,-19.17
2022-05-24 15:07:33.185,23.2179991900921,-0.23,1.56,-2,-17.44
2022-05-24 15:07:33.300,23.3329955488443,0.19,3.87,0,-23.5
2022-05-24 15:07:33.415,23.4480019658804,0.84,7.24,2,-29.12
2022-05-24 15:07:33.530,23.5629983246326,1.09,6.33,5,-13.44
2022-05-24 15:07:33.644,23.6769989132881,0.99,4.42,6,6.88
2022-05-24 15:07:33.759,23.7919952720404,0.54,1.28,6,21.24
2022-05-24 15:07:33.873,23.9059958606958,-0.18,-2.35,5,34.36
2022-05-24 15:07:33.988,24.0210022777319,-0.72,-3.49,2,31.09
2022-05-24 15:07:34.103,24.1359986364841,-0.87,-2.3,-2,10.7
2022-05-24 15:07:34.218,24.2510050535202,-1.01,-2.75,-4,-1.15
2022-05-24 15:07:34.333,24.3660014122725,-0.96,-1.74,-1,-11.48
2022-05-24 15:07:34.443,24.4759988039732,-0.21,3.92,-3,-21.07
2022-05-24 15:07:34.558,24.5909951627254,1.14,11.3,-2,-64.92
2022-05-24 15:07:34.672,24.7049957513809,1.23,6.12,3,-21.9
2022-05-24 15:07:34.786,24.8189963400364,0.51,0.01,7,24.88
2022-05-24 15:07:34.902,24.9349985271692,0.5,3.08,7,15.23
2022-05-24 15:07:35.017,25.0500049442053,0.56,3.64,6,11.54
2022-05-24 15:07:35.131,25.163995474577,-0.06,-1.48,6,33.24
2022-05-24 15:07:35.246,25.279001891613,-0.84,-4.96,3,45.89
2022-05-24 15:07:35.360,25.3930024802685,-0.64,0.05,0,0.4
2022-05-24 15:07:35.475,25.5079988390207,-0.2,2.64,0,-16.81
2022-05-24 15:07:35.589,25.6219994276762,-0.02,2.09,0,-6.97
2022-05-24 15:07:35.704,25.7369957864285,0.62,6.35,0,-29.2
2022-05-24 15:07:35.820,25.8529979735613,1.15,7.75,2,-31.21
2022-05-24 15:07:35.929,25.9619995951653,1.07,4.8,4,-5.27
2022-05-24 15:07:36.044,26.0769959539175,0.91,3.85,6,2.73
2022-05-24 15:07:36.159,26.1920023709536,0.36,0.28,7,26.71
2022-05-24 15:07:36.274,26.3069987297058,-0.43,-3.57,4,44.23
2022-05-24 15:07:36.388,26.4209993183613,-0.64,-1.75,0,14.7
2022-05-24 15:07:36.502,26.5349999070168,-0.61,-0.6,-2,-4.21
2022-05-24 15:07:36.617,26.649996265769,-0.95,-3.45,-3,6.83
2022-05-24 15:07:36.733,26.7659984529018,-1.01,-2.39,-1,-4.42
2022-05-24 15:07:36.848,26.8810048699379,-0.36,2.97,-2,-18.62
2022-05-24 15:07:36.961,26.9939996302128,1.04,11.18,0,-60.62
2022-05-24 15:07:37.076,27.108995988965,1.21,6.37,4,-14.58
2022-05-24 15:07:37.191,27.2240024060011,0.84,2.7,7,14.27
2022-05-24 15:07:37.306,27.3389987647533,0.58,2.33,7,21.2
2022-05-24 15:07:37.420,27.4529993534088,0.27,0.99,6,23.91
2022-05-24 15:07:37.531,27.5640025734901,-0.33,-2.35,5,34.43
2022-05-24 15:07:37.646,27.6789989322424,-0.81,-3.57,1,33.21
2022-05-24 15:07:37.760,27.7929995208979,-0.97,-2.65,-3,9.1
2022-05-24 15:07:37.875,27.9079958796501,-0.92,-1.59,-4,-9.44
2022-05-24 15:07:37.989,28.0219964683056,-0.81,-0.97,-3,-11.03
2022-05-24 15:07:38.104,28.1370028853416,0.06,5.4,-3,-36.07
2022-05-24 15:07:38.219,28.2519992440939,0.7,6.62,0,-35.88
2022-05-24 15:07:38.334,28.3669956028461,0.67,3.63,3,-5.18
2022-05-24 15:07:38.448,28.4809961915016,0.42,1.8,5,10.76
2022-05-24 15:07:38.563,28.5960026085377,0.2,1.15,4,17.82
2022-05-24 15:07:38.678,28.7109989672899,-0.65,-4.58,4,38.35
2022-05-24 15:07:38.792,28.8249995559454,-1.4,-6.79,1,43.99
2022-05-24 15:07:38.908,28.9410017430782,-1.27,-2.47,-3,5.45
2022-05-24 15:07:39.022,29.0550023317337,-0.86,0.15,-4,-17.75
2022-05-24 15:07:39.133,29.1659954935312,-0.75,-0.75,-4,-9.84
2022-05-24 15:07:39.248,29.2810019105673,-0.35,1.9,-3,-23.3
2022-05-24 15:07:39.362,29.3950024992228,0.39,6.01,-2,-35.92
2022-05-24 15:07:39.476,29.5090030878782,0.69,5.14,2,-23.26
2022-05-24 15:07:39.591,29.6239994466305,0.52,2.49,4,6.85
2022-05-24 15:07:39.706,29.7389958053827,0.24,1,6,15.59
2022-05-24 15:07:39.821,29.8540022224188,-0.32,-2.14,5,36.97
2022-05-24 15:07:39.935,29.9680028110743,-0.9,-4.32,3,36.87
2022-05-24 15:07:40.050,30.0829991698265,-1.29,-4.78,0,28.49
2022-05-24 15:07:40.165,30.1979955285788,-1.32,-3.36,-4,9.1
2022-05-24 15:07:40.279,30.3119961172342,-1.42,-4.02,-6,-1.48
2022-05-24 15:07:40.394,30.4270025342703,-1.28,-2.44,-5,-15.03
